Location: *
(43.9905°S, 176.4941°W)
Time: 04:53:11
(UTC+00:00)

SJ 16-02 - Pass Details

Date: 08 December 2019
Orbit: 605 x 618 km, 75.0° (Epoch: 28 January)

Event Time Altitude Azimuth Distance (km) Brightness Sun altitude
Rises 09:49:13 0° 194° (SSW) 2,924 6.3 -18.8°
Reaches altitude 10° 09:51:35 10° 188° (S) 2,008 5.1 -19.0°
Maximum altitude 09:55:54 45° 114° (ESE) 849 2.0 -19.3°
Enters shadow 09:57:10 35° 70° (ENE) 1,003 2.0 -19.4°
